Location: Unspecified
(0.0000°N, 0.0000°E)
Time: 16:41:02
(UTC+00:00)

A-11 Canister half - Pass Details

Date: 23 November 2019
Orbit: 1526 x 1683 km, 47.3° (Epoch: 12 December)

Event Time Altitude Azimuth Distance (km) Brightness Sun altitude
Rises 17:33:43 0° 346° (NNW) 4,728 11.5 3.0°
Reaches altitude 10° 17:37:53 10° 2° (N) 3,723 10.8 2.0°
Maximum altitude 17:44:29 21° 47° (NE) 2,921 10.0 0.5°
Drops below altitude 10° 17:50:58 10° 92° (E) 3,688 10.4 -1.1°
Sets 17:55:01 0° 108° (ESE) 4,672 11.1 -2.0°
